Change the Weather History Date:

Friday, April 12, 2013

  Actual Average Record
Temperature  
Mean Temperature 50 °F -  
Max Temperature 62 °F 67 °F 81 °F (2014)
Min Temperature 38 °F 46 °F 32 °F (2012)
Degree Days  
Heating Degree Days 15    
Moisture  
Dew Point 40 °F    
Average Humidity 72    
Maximum Humidity 100    
Minimum Humidity 42    
Precipitation  
Precipitation 0.00 in - - ()
Sea Level Pressure  
Sea Level Pressure 29.85 in    
Wind  
Wind Speed 11 mph (West)    
Max Wind Speed 22 mph    
Max Gust Speed 29 mph    
Visibility 10 miles    
Events      
Averages and records for this station are not official NWS values.
T = Trace of Precipitation, MM = Missing Value Source: NWS Daily Summary

Daily Weather History Graph

Daily Weather History Graph

Search for Another Location

Airport or City:

Trip Planner

Search our weather history database for the weather conditions in past years. The results will help you decide how hot, cold, wet, or windy it might be!

Date:

Astronomy

Apr. 12, 2013 Rise Set
Actual Time 6:19 AM CDT 7:22 PM CDT
Civil Twilight 5:53 AM CDT 7:48 PM CDT
Nautical Twilight 5:21 AM CDT 8:20 PM CDT
Astronomical Twilight 4:49 AM CDT 8:52 PM CDT
Moon 7:32 AM CDT (4/12) 9:48 PM CDT (4/12)
Length of Visible Light 13h 55m
Length of Day
13h 02m
Waxing Crescent, 5% of the Moon is Illuminated
Apr 12
Waxing Crescent
Apr 18
First Quarter
Apr 25
Full
May 2
Last Quarter
May 9
New

Hourly Weather History & Observations

Time (CDT) Temp. Windchill Dew Point Humidity Pressure Visibility Wind Dir Wind Speed Gust Speed Precip Events Conditions
12:12 AM 50.0 °F - 50.0 °F 100% 29.72 in 10.0 mi West 12.7 mph - N/A   Overcast
12:24 AM 48.2 °F - 48.2 °F 100% 29.73 in 10.0 mi West 11.5 mph - N/A   Mostly Cloudy
12:55 AM 47.7 °F - 47.7 °F 100% 29.74 in 10.0 mi West 9.2 mph - N/A   Partly Cloudy
1:20 AM 48.2 °F - 48.2 °F 100% 29.74 in 10.0 mi WNW 8.1 mph - N/A   Mostly Cloudy
1:55 AM 46.9 °F - 44.6 °F 92% 29.76 in 10.0 mi NW 13.8 mph 21.9 mph N/A   Overcast
2:01 AM 46.4 °F 40.1 °F 42.8 °F 87% 29.76 in 10.0 mi NW 15.0 mph 23.0 mph N/A   Mostly Cloudy
2:33 AM 44.6 °F 38.4 °F 39.2 °F 81% 29.78 in 10.0 mi NW 12.7 mph - N/A   Mostly Cloudy
2:40 AM 42.8 °F 35.8 °F 37.4 °F 81% 29.78 in 10.0 mi NW 13.8 mph - N/A   Scattered Clouds
2:55 AM 43.0 °F 36.4 °F 35.8 °F 76% 29.79 in 10.0 mi NW 12.7 mph - N/A   Partly Cloudy
3:55 AM 40.8 °F 36.9 °F 36.0 °F 83% 29.82 in 10.0 mi WNW 5.8 mph - N/A   Clear
4:55 AM 39.4 °F 37.2 °F 38.5 °F 97% 29.83 in 10.0 mi SSW 3.5 mph - N/A   Clear
5:55 AM 38.1 °F 35.7 °F 37.4 °F 97% 29.84 in 10.0 mi SW 3.5 mph - N/A   Clear
6:55 AM 39.0 °F - 38.7 °F 99% 29.86 in 10.0 mi Calm Calm - N/A   Clear
7:55 AM 44.4 °F 40.0 °F 39.4 °F 82% 29.87 in 10.0 mi SW 8.1 mph - N/A   Clear
8:55 AM 48.9 °F - 38.1 °F 66% 29.88 in 10.0 mi SW 8.1 mph - N/A   Clear
9:55 AM 52.9 °F - 36.7 °F 54% 29.88 in 10.0 mi SW 9.2 mph - N/A   Partly Cloudy
10:55 AM 54.1 °F - 36.3 °F 51% 29.89 in 10.0 mi WSW 13.8 mph 21.9 mph N/A   Partly Cloudy
11:55 AM 56.3 °F - 37.0 °F 48% 29.88 in 10.0 mi WSW 17.3 mph - N/A   Partly Cloudy
12:55 PM 58.8 °F - 38.5 °F 47% 29.87 in 10.0 mi SW 20.7 mph 24.2 mph N/A   Scattered Clouds
1:55 PM 59.4 °F - 38.1 °F 45% 29.87 in 10.0 mi SW 20.7 mph 27.6 mph N/A   Mostly Cloudy
2:55 PM 61.3 °F - 38.7 °F 43% 29.87 in 10.0 mi WSW 20.7 mph - N/A   Partly Cloudy
3:55 PM 62.4 °F - 38.8 °F 42% 29.86 in 10.0 mi WSW 21.9 mph 28.8 mph N/A   Partly Cloudy
4:55 PM 59.9 °F - 39.2 °F 46% 29.88 in 10.0 mi West 18.4 mph 24.2 mph N/A   Mostly Cloudy
5:55 PM 59.0 °F - 40.1 °F 50% 29.89 in 10.0 mi WNW 16.1 mph - N/A   Partly Cloudy
6:55 PM 57.2 °F - 40.1 °F 53% 29.90 in 10.0 mi WNW 11.5 mph - N/A   Scattered Clouds
7:55 PM 53.4 °F - 40.3 °F 61% 29.92 in 10.0 mi WNW 6.9 mph - N/A   Partly Cloudy
8:55 PM 52.2 °F - 39.2 °F 61% 29.94 in 10.0 mi WSW 4.6 mph - N/A   Clear
9:55 PM 50.2 °F - 40.6 °F 70% 29.96 in 10.0 mi Calm Calm - N/A   Clear
10:55 PM 46.2 °F 41.2 °F 38.5 °F 74% 30.00 in 10.0 mi North 10.4 mph - N/A   Clear
11:55 PM 45.0 °F 42.6 °F 37.2 °F 74% 30.03 in 10.0 mi Variable 4.6 mph - N/A   Clear